• Join FlightAware (Why Join?)
  • Login
  • US Flag GB Flag 
14:24 EDT


 

Airport Tracker/Info


-or-


 

Live Flight TrackerFlight Track Log ✈ DRS454 ✈ 19-Jul-2013 ✈ KHTO - KBHB

Flight Track Log - Related Links

Times and Time Zones

All times are in EDT time to prevent confusion due to time zone crossing. See the DRS454 flight status page for this flight to view local times or setup timezone preferences in your user account.

Time Position Orientation Groundspeed Altitude Reporting Facility
EDT Latitude Longitude Course Direction KTS MPH feet Rate Location/Type
11:55 41.1556 -72.0789 38° Northeast 148 170 4,200  Level Boston Center
11:57 41.0737 -72.1331 38° Northeast  Level Estimated
11:57 41.1992 -72.0319 39° Northeast 152 175 4,900  Level Boston Center
11:58 41.1117 -72.0936 38° Northeast  Level Estimated
11:58 41.2325 -71.9958 39° Northeast 154 177 5,400  Level Boston Center
11:59 41.1497 -72.0539 38° Northeast  Level Estimated
11:59 41.2656 -71.9569 41° Northeast 157 181 5,800  Level Boston Center
12:00 41.1878 -72.0142 38° Northeast  Level Estimated
12:00 41.2989 -71.9233 37° Northeast 153 176 6,400  Level Boston Center
12:01 41.2258 -71.9745 38° Northeast  Level Estimated
12:01 41.3319 -71.8900 37° Northeast 152 175 6,900  Level Boston Center
12:02 41.3694 -71.8508 38° Northeast 159 183 7,400 540 Climbing Boston Center
12:03 41.4086 -71.8119 37° Northeast 156 180 8,100 540 Climbing Boston Center
12:05 41.4430 -71.7566 38° Northeast  Level FlightAware Approximate
12:07 41.5328 -71.6747 38° Northeast 165 190 10,000  Level Boston Center
12:08 41.5661 -71.6411 37° Northeast 160 184 10,500 540 Climbing Boston Center
12:09 41.6033 -71.6017 38° Northeast 160 184 11,100 540 Climbing Boston Center
12:10 41.6342 -71.5653 41° Northeast 160 184 11,600 240 Climbing Boston Center
12:11 41.6797 -71.5200 37° Northeast 166 191 11,600  Level Boston Center
12:12 41.7211 -71.4778 37° Northeast 181 208 11,600  Level Boston Center
12:13 41.7644 -71.4325 38° Northeast 181 208 11,600  Level Boston Center
12:14 41.8056 -71.3872 39° Northeast 187 215 11,600  Level Boston Center
12:15 41.8469 -71.3450 37° Northeast 187 215 11,600  Level Boston Center
12:16 41.8883 -71.2994 39° Northeast 187 215 11,600  Level Boston Center
12:17 41.9294 -71.2569 38° Northeast 187 215 11,600 -60 Level Boston Center
12:18 42.0000 -71.1833 38° Northeast 195 224 11,500  Descending KA90
12:19 42.0333 -71.1333 48° Northeast 189 217 11,600  Climbing KA90
12:20 42.0833 -71.0833 37° Northeast 192 221 11,600 -60 Level KA90
12:21 42.1167 -71.0500 37° Northeast 191 220 11,500  Descending KA90
12:22 42.1667 -71.0000 37° Northeast 190 219 11,600  Climbing KA90
12:23 42.2000 -70.9500 48° Northeast 188 216 11,600 -60 Level KA90
12:24 42.2500 -70.9167 26° Northeast 185 213 11,500  Descending KA90
12:25 42.2833 -70.8667 48° Northeast 184 212 11,600  Climbing KA90
12:26 42.3167 -70.8333 36° Northeast 184 212 11,600  Level KA90
12:27 42.3667 -70.7833 36° Northeast 192 221 11,600  Level KA90
12:28 42.4000 -70.7333 48° Northeast 192 221 11,600  Level KA90
12:29 42.4500 -70.6833 36° Northeast 191 220 11,600  Level KA90
12:30 42.4833 -70.6333 48° Northeast 192 221 11,600  Level KA90
12:31 42.5356 -70.5944 29° Northeast 213 245 11,600  Level Boston Center
12:33 42.5764 -70.5481 40° Northeast 206 237 11,600 -60 Level Boston Center
12:34 42.6172 -70.5017 40° Northeast 195 224 11,500  Descending Boston Center
12:35 42.6664 -70.4467 39° Northeast 195 224 11,600  Climbing Boston Center
12:36 42.7092 -70.3972 40° Northeast 195 224 11,600  Level Boston Center
12:37 42.7522 -70.3506 39° Northeast 195 224 11,600 -60 Level Boston Center
12:38 42.7931 -70.3039 40° Northeast 195 224 11,500  Descending Boston Center
12:39 42.8358 -70.2569 39° Northeast 195 224 11,600  Climbing Boston Center
12:40 42.8786 -70.2072 40° Northeast 195 224 11,600  Level Boston Center
12:41 42.9175 -70.1633 40° Northeast 195 224 11,600  Level Boston Center
12:42 42.9622 -70.1106 41° Northeast 195 224 11,600 -60 Level Boston Center
12:43 43.0031 -70.0667 38° Northeast 200 230 11,500  Descending Boston Center
12:44 43.0519 -70.0108 40° Northeast 200 230 11,600  Climbing Boston Center
12:45 43.0947 -69.9636 39° Northeast 200 230 11,600 -60 Level Boston Center
12:46 43.1394 -69.9133 39° Northeast 195 224 11,500  Descending Boston Center
12:47 43.1819 -69.8658 39° Northeast 195 224 11,600  Climbing Boston Center
12:48 43.2106 -69.8306 42° Northeast 195 224 11,500 -60 Descending Boston Center
12:49 43.2633 -69.7714 39° Northeast 195 224 11,500  Level Boston Center
12:50 43.3039 -69.7211 42° Northeast 195 224 11,600  Climbing Boston Center
12:51 43.3422 -69.6764 40° Northeast 195 224 11,500  Descending Boston Center
12:52 43.3869 -69.6286 38° Northeast 190 219 11,600  Climbing Boston Center
12:53 43.4294 -69.5781 41° Northeast 190 219 11,600 -60 Level Boston Center
12:54 43.4719 -69.5303 39° Northeast 195 224 11,500 -60 Descending Boston Center
12:55 43.5125 -69.4825 41° Northeast 195 224 11,500 -300 Level Boston Center
12:56 43.5592 -69.4344 37° Northeast 200 230 11,000 -480 Descending Boston Center
12:57 43.6017 -69.3836 41° Northeast 205 236 10,600 -480 Descending Boston Center
12:58 43.6481 -69.3267 42° Northeast 205 236 10,100 -480 Descending Boston Center
12:59 43.6906 -69.2786 39° Northeast 205 236 9,700 -480 Descending Boston Center
13:00 43.7369 -69.2244 40° Northeast 205 236 9,200 -600 Descending Boston Center
13:01 43.7814 -69.1731 40° Northeast 200 230 8,500 -660 Descending Boston Center
13:02 43.8339 -69.1128 40° Northeast 200 230 7,800 -600 Descending Boston Center
13:03 43.8758 -69.0556 45° Northeast 200 230 7,400 -600 Descending Boston Center
13:04 43.9114 -68.9903 53° Northeast 200 230 6,700 -600 Descending Boston Center
13:05 43.9517 -68.9358 44° Northeast 200 230 6,200 -540 Descending Boston Center
13:06 44.0081 -68.8778 37° Northeast 200 230 5,600 -600 Descending Boston Center
13:07 44.0547 -68.8344 34° Northeast 195 224 5,000 -600 Descending Boston Center
13:08 44.0969 -68.7856 40° Northeast 195 224 4,500 -480 Descending Boston Center
13:09 44.1392 -68.7339 41° Northeast 195 224 4,100 -480 Descending Boston Center
13:10 44.1836 -68.6906 35° Northeast 200 230 3,600 -480 Descending Boston Center
13:11 44.2211 -68.6331 48° Northeast 200 230 3,200 -360 Descending Boston Center
13:12 44.2633 -68.5811 41° Northeast 200 230 2,900 -300 Descending Boston Center
13:13 44.3017 -68.5408 37° Northeast 195 224 2,600 -480 Descending Boston Center
13:14 44.3436 -68.4944 38° Northeast 195 224 2,000 4,440 Descending Boston Center
13:15 44.3878 -68.4450 39° Northeast 195 224 11,500 4,740 Climbing Boston Center
13:16 44.4281 -68.3989 39° Northeast 195 224 11,500  Level Boston Center
13:17 44.4681 -68.3525 40° Northeast 195 224 11,500  Level Boston Center
13:18 44.5081 -68.3058 40° Northeast 195 224 11,500  Level Boston Center
13:21 44.4498 -68.3616 208° Southwest  Level Estimated
13:28 44.4498 -68.3616 208° Southwest  Level Estimated
13:29 44.4498 -68.3616 208° Southwest  Level Estimated
13:30 44.4498 -68.3616 208° Southwest  Level Estimated